Terminal Aerodrome Forecast
Issued by NWS Grand Forks, ND

Home | Current Version | Previous Version | Text Only | Print | Product List | Glossary On
Versions: 1 2 3 4 5 6 7 8 9 10 11 12 13 14 15 16 17 18 19 20 21
000
FTUS43 KFGF 181700
TAFGFK
TAF
KGFK 181720Z 1818/1918 VRB03KT P6SM VCTS FEW010 BKN050CB
     FM182000 34009KT P6SM VCSH BKN025
     FM190200 33005KT P6SM SCT250
     FM191100 VRB03KT 2SM BR SCT250
     FM191400 35005KT P6SM SCT250=

USA.gov is the U.S. government's official web portal to all federal, state and local government web resources and services.